,,,PA_Meas_PMT16A,,PR_Meas_QMR101_102,,RH_Meas_QMH101,,SR_Meas_QMS101,,TA_Meas_QMH101,,GenWind,,GenWind,
date,time,status,PA,status,PR,status,RH,status,SR,status,TA,status,DirAvg,status,SpdAvg,
2009-01-07, 00:00:04,VALID,1010.27,VALID,0,VALID,95.0703,VALID,0,VALID,24.2591,VALID,166,VALID,0,
2009-01-07, 00:01:04,VALID,1010.24,VALID,0,VALID,95.055,VALID,0,VALID,24.2378,VALID,164,VALID,0,
2009-01-07, 00:02:04,VALID,1010.25,VALID,0,VALID,95.0703,VALID,0.105969,VALID,24.2183,VALID,157,VALID,0,
2009-01-07, 00:03:04,VALID,1010.22,VALID,0,VALID,95.0703,VALID,0,VALID,24.2378,VALID,140,VALID,0,
2009-01-07, 00:04:04,VALID,1010.21,VALID,0,VALID,95.0779,VALID,0,VALID,24.2183,VALID,138,VALID,0,
2009-01-07, 00:05:04,VALID,1010.19,VALID,0,VALID,95.0931,VALID,0,VALID,24.2183,VALID,137,VALID,0.0078125,
2009-01-07, 00:06:04,VALID,1010.17,VALID,0,VALID,95.0931,VALID,0.105969,VALID,24.2378,VALID,135,VALID,0.734766,
2009-01-07, 00:07:04,VALID,1010.14,VALID,0,VALID,95.1008,VALID,0,VALID,24.2183,VALID,114,VALID,0.653125,
2009-01-07, 00:08:04,VALID,1010.14,VALID,0,VALID,95.116,VALID,0,VALID,24.2396,VALID,124,VALID,0.723437,
2009-01-07, 00:09:04,VALID,1010.17,VALID,0,VALID,95.1084,VALID,0,VALID,24.2183,VALID,112,VALID,0.809375,
2009-01-07, 00:10:04,VALID,1010.15,VALID,0,VALID,95.1084,VALID,0,VALID,24.1988,VALID,135,VALID,0.782031,
2009-01-07, 00:11:04,VALID,1010.16,VALID,0,VALID,95.1084,VALID,0.105969,VALID,24.1793,VALID,144,VALID,0.504297,
2009-01-07, 00:12:04,VALID,1010.14,VALID,0,VALID,95.1236,VALID,0,VALID,24.1793,VALID,141,VALID,0.703125,
2009-01-07, 00:13:04,VALID,1010.1,VALID,0,VALID,95.1313,VALID,0,VALID,24.1793,VALID,128,VALID,0.732422,
2009-01-07, 00:14:04,VALID,1010.08,VALID,0,VALID,95.1465,VALID,0,VALID,24.1599,VALID,134,VALID,0.769922,
2009-01-07, 00:15:04,VALID,1010.06,VALID,0,VALID,95.1389,VALID,0,VALID,24.1404,VALID,115,VALID,0.719922,
2009-01-07, 00:16:04,VALID,1010.04,VALID,0,VALID,95.1618,VALID,0,VALID,24.1209,VALID,112,VALID,0.598047,
2009-01-07, 00:17:04,VALID,1010.02,VALID,0,VALID,95.1465,VALID,0.105969,VALID,24.1209,VALID,112,VALID,0.416016,
2009-01-07, 00:18:04,VALID,1010.03,VALID,0,VALID,95.1618,VALID,0.105969,VALID,24.1227,VALID,105,VALID,0.196875,
2009-01-07, 00:19:04,VALID,1010.03,VALID,0,VALID,95.1847,VALID,0,VALID,24.1014,VALID,92,VALID,0.53125,
2009-01-07, 00:20:04,VALID,1010.01,VALID,0,VALID,95.1847,VALID,0,VALID,24.0819,VALID,94,VALID,0.605859,
2009-01-07, 00:21:04,VALID,1009.98,VALID,0,VALID,95.1694,VALID,0,VALID,24.0819,VALID,117,VALID,0.408594,
2009-01-07, 00:22:04,VALID,1009.97,VALID,0,VALID,95.1923,VALID,0,VALID,24.1014,VALID,117,VALID,0.414063,
2009-01-07, 00:23:04,VALID,1010.01,VALID,0,VALID,95.1923,VALID,0,VALID,24.0819,VALID,121,VALID,0.399609,
2009-01-07, 00:24:04,VALID,1010,VALID,0,VALID,95.1999,VALID,0.105969,VALID,24.0819,VALID,120,VALID,0.388281,
2009-01-07, 00:25:04,VALID,1010,VALID,0,VALID,95.1999,VALID,0,VALID,24.0624,VALID,108,VALID,0.555469,
2009-01-07, 00:26:04,VALID,1010,VALID,0,VALID,95.1999,VALID,0.105969,VALID,24.0819,VALID,93,VALID,0.648828,
2009-01-07, 00:27:04,VALID,1010.01,VALID,0,VALID,95.2228,VALID,0.105969,VALID,24.0819,VALID,93,VALID,0.345703,
2009-01-07, 00:28:04,VALID,1009.99,VALID,0,VALID,95.1999,VALID,0.105969,VALID,24.0624,VALID,93,VALID,0.344141,
2009-01-07, 00:29:04,VALID,1009.99,VALID,0,VALID,95.2075,VALID,0.105969,VALID,24.0819,VALID,93,VALID,0.00351562,
2009-01-07, 00:30:04,VALID,1009.97,VALID,0,VALID,95.1999,VALID,0.105969,VALID,24.0819,VALID,93,VALID,0.0726563,
2009-01-07, 00:31:04,VALID,1009.96,VALID,0,VALID,95.2304,VALID,0.105969,VALID,24.0624,VALID,93,VALID,0,
2009-01-07, 00:32:04,VALID,1009.93,VALID,0,VALID,95.2228,VALID,0.105969,VALID,24.0819,VALID,111,VALID,0.325781,
2009-01-07, 00:33:04,VALID,1009.94,VALID,0,VALID,95.2152,VALID,0.105969,VALID,24.0429,VALID,111,VALID,0.192188,
2009-01-07, 00:34:04,VALID,1009.97,VALID,0,VALID,95.2304,VALID,0.105969,VALID,24.0429,VALID,111,VALID,0.0992187,
2009-01-07, 00:35:04,VALID,1009.95,VALID,0,VALID,95.2304,VALID,0.105969,VALID,24.0429,VALID,109,VALID,0.299609,
2009-01-07, 00:36:04,VALID,1009.93,VALID,0,VALID,95.2304,VALID,0.105969,VALID,24.0429,VALID,109,VALID,0.419141,
2009-01-07, 00:37:04,VALID,1009.92,VALID,0,VALID,95.238,VALID,0.105969,VALID,24.0429,VALID,109,VALID,0.570703,
2009-01-07, 00:38:04,VALID,1009.9,VALID,0,VALID,95.2304,VALID,0,VALID,24.0235,VALID,109,VALID,0.220313,
2009-01-07, 00:39:04,VALID,1009.89,VALID,0,VALID,95.2304,VALID,0.105969,VALID,24.0022,VALID,109,VALID,0.422656,
2009-01-07, 00:40:04,VALID,1009.85,VALID,0,VALID,95.2228,VALID,0,VALID,24.004,VALID,142,VALID,0.608594,
2009-01-07, 00:41:04,VALID,1009.87,VALID,0,VALID,95.2228,VALID,0,VALID,23.9845,VALID,146,VALID,0.6,
2009-01-07, 00:42:04,VALID,1009.83,VALID,0,VALID,95.2152,VALID,0,VALID,23.9863,VALID,146,VALID,0.619922,
2009-01-07, 00:43:04,VALID,1009.83,VALID,0,VALID,95.238,VALID,0,VALID,23.9668,VALID,145,VALID,0.181641,
2009-01-07, 00:44:04,VALID,1009.84,VALID,0,VALID,95.2228,VALID,0,VALID,23.9455,VALID,146,VALID,0.578906,
2009-01-07, 00:45:04,VALID,1009.85,VALID,0,VALID,95.238,VALID,0.105969,VALID,23.926,VALID,147,VALID,0.114063,
2009-01-07, 00:46:04,VALID,1009.81,VALID,0,VALID,95.2304,VALID,0,VALID,23.9473,VALID,141,VALID,0.448438,
2009-01-07, 00:47:04,VALID,1009.81,VALID,0,VALID,95.1999,VALID,0,VALID,23.926,VALID,128,VALID,0.524609,
2009-01-07, 00:48:04,VALID,1009.78,VALID,0,VALID,95.2228,VALID,0,VALID,23.9473,VALID,128,VALID,0.271484,
2009-01-07, 00:49:04,VALID,1009.8,VALID,0,VALID,95.2228,VALID,0,VALID,23.9278,VALID,128,VALID,0.272656,
2009-01-07, 00:50:04,VALID,1009.78,VALID,0,VALID,95.2228,VALID,0,VALID,23.9065,VALID,128,VALID,0.348437,
2009-01-07, 00:51:04,VALID,1009.74,VALID,0,VALID,95.2075,VALID,0,VALID,23.9473,VALID,128,VALID,0.323828,
2009-01-07, 00:52:04,VALID,1009.71,VALID,0,VALID,95.238,VALID,0,VALID,23.9278,VALID,128,VALID,0.570313,
2009-01-07, 00:53:04,VALID,1009.7,VALID,0,VALID,95.2533,VALID,0,VALID,23.9473,VALID,124,VALID,0.374609,
2009-01-07, 00:54:04,VALID,1009.69,VALID,0,VALID,95.2457,VALID,0,VALID,23.9473,VALID,124,VALID,0.695313,
2009-01-07, 00:55:04,VALID,1009.68,VALID,0,VALID,95.2609,VALID,0,VALID,23.9473,VALID,118,VALID,0.665234,
2009-01-07, 00:56:04,VALID,1009.68,VALID,0,VALID,95.2457,VALID,0,VALID,23.9473,VALID,114,VALID,0.489453,
2009-01-07, 00:57:04,VALID,1009.7,VALID,0,VALID,95.2304,VALID,0,VALID,23.9473,VALID,125,VALID,0.533203,
2009-01-07, 00:58:04,VALID,1009.67,VALID,0,VALID,95.2457,VALID,0,VALID,23.9278,VALID,121,VALID,0.334766,
2009-01-07, 00:59:04,VALID,1009.66,VALID,0,VALID,95.2533,VALID,0,VALID,23.9278,VALID,93,VALID,0.51875,
2009-01-07, 01:00:04,VALID,1009.63,VALID,0,VALID,95.2304,VALID,0,VALID,23.9473,VALID,84,VALID,0.485156,
2009-01-07, 01:01:04,VALID,1009.59,VALID,0,VALID,95.2075,VALID,0,VALID,23.9278,VALID,84,VALID,0.310937,
2009-01-07, 01:02:04,VALID,1009.57,VALID,0,VALID,95.238,VALID,0,VALID,23.926,VALID,84,VALID,0.544922,
2009-01-07, 01:03:04,VALID,1009.57,VALID,0,VALID,95.2533,VALID,0,VALID,23.9278,VALID,84,VALID,0,
2009-01-07, 01:04:04,VALID,1009.54,VALID,0,VALID,95.2457,VALID,0,VALID,23.9084,VALID,76,VALID,0.519141,
2009-01-07, 01:05:04,VALID,1009.53,VALID,0,VALID,95.2457,VALID,0,VALID,23.9084,VALID,75,VALID,0.546484,
2009-01-07, 01:06:04,VALID,1009.51,VALID,0,VALID,95.2457,VALID,0,VALID,23.9278,VALID,77,VALID,0.556641,
2009-01-07, 01:07:04,VALID,1009.52,VALID,0,VALID,95.238,VALID,0,VALID,23.8889,VALID,77,VALID,0.598828,
2009-01-07, 01:08:04,VALID,1009.5,VALID,0,VALID,95.2609,VALID,0,VALID,23.9278,VALID,77,VALID,0.513281,
2009-01-07, 01:09:04,VALID,1009.46,VALID,0,VALID,95.2457,VALID,0,VALID,23.9084,VALID,77,VALID,0,
2009-01-07, 01:10:04,VALID,1009.5,VALID,0,VALID,95.2533,VALID,0.105969,VALID,23.8871,VALID,77,VALID,0,
2009-01-07, 01:11:04,VALID,1009.5,VALID,0,VALID,95.2457,VALID,0.105969,VALID,23.8871,VALID,77,VALID,0,
2009-01-07, 01:12:04,VALID,1009.54,VALID,0,VALID,95.2304,VALID,0.105969,VALID,23.8658,VALID,77,VALID,0,
2009-01-07, 01:13:04,VALID,1009.52,VALID,0,VALID,95.2304,VALID,0.105969,VALID,23.8676,VALID,77,VALID,0,
2009-01-07, 01:14:04,VALID,1009.53,VALID,0,VALID,95.238,VALID,0.105969,VALID,23.8676,VALID,78,VALID,0.850781,
2009-01-07, 01:15:04,VALID,1009.51,VALID,0,VALID,95.2533,VALID,0.105969,VALID,23.8676,VALID,82,VALID,0.597266,
2009-01-07, 01:16:04,VALID,1009.48,VALID,0,VALID,95.2075,VALID,0.105969,VALID,23.8871,VALID,95,VALID,0.546875,
2009-01-07, 01:17:04,VALID,1009.49,VALID,0,VALID,95.2304,VALID,0.105969,VALID,23.8676,VALID,114,VALID,0.500391,
2009-01-07, 01:18:04,VALID,1009.48,VALID,0,VALID,95.2228,VALID,0.105969,VALID,23.8481,VALID,117,VALID,0.434375,
2009-01-07, 01:19:04,VALID,1009.48,VALID,0,VALID,95.2228,VALID,0.105969,VALID,23.8481,VALID,137,VALID,0.609766,
2009-01-07, 01:20:04,VALID,1009.49,VALID,0,VALID,95.2304,VALID,0.105969,VALID,23.8481,VALID,136,VALID,0.545313,
2009-01-07, 01:21:04,VALID,1009.46,VALID,0,VALID,95.1923,VALID,0.105969,VALID,23.8286,VALID,124,VALID,0.597656,
2009-01-07, 01:22:04,VALID,1009.47,VALID,0,VALID,95.2075,VALID,0.105969,VALID,23.8286,VALID,107,VALID,0.349219,
2009-01-07, 01:23:04,VALID,1009.46,VALID,0,VALID,95.2075,VALID,0.105969,VALID,23.8268,VALID,83,VALID,0.958984,
2009-01-07, 01:24:04,VALID,1009.49,VALID,0,VALID,95.2228,VALID,0.105969,VALID,23.8481,VALID,96,VALID,0.557031,
2009-01-07, 01:25:04,VALID,1009.46,VALID,0,VALID,95.1999,VALID,0,VALID,23.8499,VALID,96,VALID,0.285156,
2009-01-07, 01:26:04,VALID,1009.43,VALID,0,VALID,95.2075,VALID,0,VALID,23.8304,VALID,101,VALID,0.766797,
2009-01-07, 01:27:04,VALID,1009.42,VALID,0,VALID,95.1923,VALID,0,VALID,23.8109,VALID,108,VALID,0.903906,
2009-01-07, 01:28:04,VALID,1009.43,VALID,0,VALID,95.1999,VALID,0,VALID,23.8304,VALID,111,VALID,0.419141,
2009-01-07, 01:29:04,VALID,1009.41,VALID,0,VALID,95.1999,VALID,0,VALID,23.8304,VALID,112,VALID,0.431641,
2009-01-07, 01:30:04,VALID,1009.43,VALID,0,VALID,95.1618,VALID,0,VALID,23.8304,VALID,114,VALID,0.654297,
2009-01-07, 01:31:04,VALID,1009.42,VALID,0,VALID,95.177,VALID,0,VALID,23.8304,VALID,114,VALID,0.303125,
2009-01-07, 01:32:04,VALID,1009.44,VALID,0,VALID,95.1694,VALID,0,VALID,23.8499,VALID,114,VALID,0.296484,
2009-01-07, 01:33:04,VALID,1009.42,VALID,0,VALID,95.177,VALID,0,VALID,23.8499,VALID,114,VALID,0.141016,
2009-01-07, 01:34:04,VALID,1009.43,VALID,0,VALID,95.1465,VALID,0,VALID,23.8109,VALID,116,VALID,0.1125,
2009-01-07, 01:35:04,VALID,1009.4,VALID,0,VALID,95.1389,VALID,0,VALID,23.8109,VALID,147,VALID,0.356641,
2009-01-07, 01:36:04,VALID,1009.41,VALID,0,VALID,95.1313,VALID,0,VALID,23.772,VALID,147,VALID,0.640234,
2009-01-07, 01:37:04,VALID,1009.4,VALID,0,VALID,95.1389,VALID,0,VALID,23.8127,VALID,150,VALID,0.890625,
2009-01-07, 01:38:04,VALID,1009.34,VALID,0,VALID,95.1236,VALID,0,VALID,23.7914,VALID,145,VALID,0.510547,
2009-01-07, 01:39:04,VALID,1009.34,VALID,0,VALID,95.1389,VALID,0,VALID,23.8127,VALID,116,VALID,0.416797,
2009-01-07, 01:40:04,VALID,1009.36,VALID,0,VALID,95.1389,VALID,0,VALID,23.7914,VALID,116,VALID,0.319922,
2009-01-07, 01:41:04,VALID,1009.35,VALID,0,VALID,95.1313,VALID,0,VALID,23.7914,VALID,116,VALID,0.00078125,
2009-01-07, 01:42:04,VALID,1009.35,VALID,0,VALID,95.1389,VALID,0,VALID,23.7914,VALID,116,VALID,0.00273437,
2009-01-07, 01:43:04,VALID,1009.31,VALID,0,VALID,95.1313,VALID,0,VALID,23.772,VALID,116,VALID,0.120312,
2009-01-07, 01:44:04,VALID,1009.31,VALID,0,VALID,95.0931,VALID,0,VALID,23.772,VALID,126,VALID,0.619141,
2009-01-07, 01:45:04,VALID,1009.3,VALID,0,VALID,95.1084,VALID,0,VALID,23.7932,VALID,140,VALID,0.540234,
2009-01-07, 01:46:04,VALID,1009.31,VALID,0,VALID,95.116,VALID,0,VALID,23.7932,VALID,141,VALID,0.287109,
2009-01-07, 01:47:04,VALID,1009.29,VALID,0,VALID,95.1084,VALID,0,VALID,23.772,VALID,141,VALID,0.377734,
2009-01-07, 01:48:04,VALID,1009.28,VALID,0,VALID,95.0931,VALID,0,VALID,23.7525,VALID,141,VALID,0.269141,
2009-01-07, 01:49:04,VALID,1009.25,VALID,0,VALID,95.1236,VALID,0,VALID,23.772,VALID,144,VALID,0.104687,
2009-01-07, 01:50:04,VALID,1009.21,VALID,0,VALID,95.1008,VALID,0,VALID,23.7738,VALID,159,VALID,0.347266,
2009-01-07, 01:51:04,VALID,1009.21,VALID,0,VALID,95.0931,VALID,0,VALID,23.7525,VALID,159,VALID,0.354688,
2009-01-07, 01:52:04,VALID,1009.2,VALID,0,VALID,95.0855,VALID,0,VALID,23.733,VALID,159,VALID,0.190234,
2009-01-07, 01:53:04,VALID,1009.2,VALID,0,VALID,95.0779,VALID,0,VALID,23.733,VALID,159,VALID,0.0328125,
2009-01-07, 01:54:04,VALID,1009.19,VALID,0,VALID,95.0855,VALID,0,VALID,23.733,VALID,159,VALID,0,
2009-01-07, 01:55:04,VALID,1009.19,VALID,0,VALID,95.0931,VALID,0.105969,VALID,23.7312,VALID,159,VALID,0.194141,
2009-01-07, 01:56:04,VALID,1009.18,VALID,0,VALID,95.1008,VALID,0,VALID,23.7312,VALID,155,VALID,0.295312,
2009-01-07, 01:57:04,VALID,1009.17,VALID,0,VALID,95.0931,VALID,0,VALID,23.7525,VALID,136,VALID,0.492969,
2009-01-07, 01:58:04,VALID,1009.19,VALID,0,VALID,95.0931,VALID,0,VALID,23.7525,VALID,136,VALID,0.434766,
2009-01-07, 01:59:04,VALID,1009.19,VALID,0,VALID,95.0855,VALID,0,VALID,23.7312,VALID,136,VALID,0.310547,
2009-01-07, 02:00:04,VALID,1009.16,VALID,0,VALID,95.0931,VALID,0,VALID,23.7312,VALID,136,VALID,0.295312,
2009-01-07, 02:01:04,VALID,1009.15,VALID,0,VALID,95.0779,VALID,0,VALID,23.7312,VALID,136,VALID,0.118359,
2009-01-07, 02:02:04,VALID,1009.14,VALID,0,VALID,95.0855,VALID,0,VALID,23.7312,VALID,136,VALID,0.231641,
2009-01-07, 02:03:04,VALID,1009.13,VALID,0,VALID,95.0703,VALID,0,VALID,23.7312,VALID,136,VALID,0.407031,
2009-01-07, 02:04:04,VALID,1009.09,VALID,0,VALID,95.0855,VALID,0,VALID,23.7507,VALID,136,VALID,0.552344,
2009-01-07, 02:05:04,VALID,1009.1,VALID,0,VALID,95.0931,VALID,0,VALID,23.7525,VALID,127,VALID,0.135156,
2009-01-07, 02:06:04,VALID,1009.07,VALID,0,VALID,95.0703,VALID,0,VALID,23.7117,VALID,127,VALID,0,
2009-01-07, 02:07:04,VALID,1009.09,VALID,0,VALID,95.0779,VALID,0,VALID,23.7117,VALID,127,VALID,0,
2009-01-07, 02:08:04,VALID,1009.1,VALID,0,VALID,95.0703,VALID,0,VALID,23.6922,VALID,147,VALID,0,
2009-01-07, 02:09:04,VALID,1009.1,VALID,0,VALID,95.0779,VALID,0.105969,VALID,23.6922,VALID,147,VALID,0,
2009-01-07, 02:10:04,VALID,1009.11,VALID,0,VALID,95.0779,VALID,0.105969,VALID,23.7135,VALID,147,VALID,0,
2009-01-07, 02:11:04,VALID,1009.11,VALID,0,VALID,95.055,VALID,0,VALID,23.6922,VALID,148,VALID,0,
2009-01-07, 02:12:04,VALID,1009.1,VALID,0,VALID,95.0855,VALID,0.105969,VALID,23.694,VALID,148,VALID,0,
2009-01-07, 02:13:04,VALID,1009.15,VALID,0,VALID,95.0855,VALID,0,VALID,23.7135,VALID,148,VALID,0,
2009-01-07, 02:14:04,VALID,1009.13,VALID,0,VALID,95.0855,VALID,0.105969,VALID,23.6922,VALID,148,VALID,0,
2009-01-07, 02:15:04,VALID,1009.13,VALID,0,VALID,95.0931,VALID,0,VALID,23.694,VALID,148,VALID,0,
2009-01-07, 02:16:04,VALID,1009.12,VALID,0,VALID,95.0626,VALID,0,VALID,23.7135,VALID,148,VALID,0,
2009-01-07, 02:17:04,VALID,1009.13,VALID,0,VALID,95.0626,VALID,0,VALID,23.694,VALID,148,VALID,0,
2009-01-07, 02:18:04,VALID,1009.15,VALID,0,VALID,95.0779,VALID,0,VALID,23.6727,VALID,177,VALID,0.312891,
2009-01-07, 02:19:04,VALID,1009.15,VALID,0,VALID,95.0855,VALID,0,VALID,23.6727,VALID,177,VALID,0,
2009-01-07, 02:20:04,VALID,1009.13,VALID,0,VALID,95.0779,VALID,0.105969,VALID,23.6922,VALID,177,VALID,0.325391,
2009-01-07, 02:21:04,VALID,1009.12,VALID,0,VALID,95.1084,VALID,0,VALID,23.7135,VALID,177,VALID,0.246484,
2009-01-07, 02:22:04,VALID,1009.13,VALID,0,VALID,95.0931,VALID,0.105969,VALID,23.6922,VALID,177,VALID,0.372266,
2009-01-07, 02:23:04,VALID,1009.11,VALID,0,VALID,95.1008,VALID,0.105969,VALID,23.7135,VALID,176,VALID,0.665625,
2009-01-07, 02:24:04,VALID,1009.14,VALID,0,VALID,95.1084,VALID,0.105969,VALID,23.7135,VALID,176,VALID,0.342187,
2009-01-07, 02:25:04,VALID,1009.08,VALID,0,VALID,95.1008,VALID,0,VALID,23.6922,VALID,176,VALID,0.107031,
2009-01-07, 02:26:04,VALID,1009.13,VALID,0,VALID,95.1008,VALID,0.105969,VALID,23.694,VALID,175,VALID,0.0488281,
2009-01-07, 02:27:04,VALID,1009.11,VALID,0,VALID,95.116,VALID,0,VALID,23.6922,VALID,166,VALID,0.392188,
2009-01-07, 02:28:04,VALID,1009.1,VALID,0,VALID,95.1084,VALID,0.105969,VALID,23.7135,VALID,166,VALID,0.366016,
2009-01-07, 02:29:04,VALID,1009.13,VALID,0,VALID,95.1313,VALID,0.105969,VALID,23.6922,VALID,130,VALID,0.447266,
2009-01-07, 02:30:04,VALID,1009.1,VALID,0,VALID,95.116,VALID,0,VALID,23.6727,VALID,130,VALID,0.505859,
2009-01-07, 02:31:04,VALID,1009.13,VALID,0,VALID,95.1084,VALID,0.105969,VALID,23.6922,VALID,137,VALID,0.758594,
2009-01-07, 02:32:04,VALID,1009.12,VALID,0,VALID,95.1389,VALID,0.105969,VALID,23.6922,VALID,122,VALID,0.5875,
2009-01-07, 02:33:04,VALID,1009.13,VALID,0,VALID,95.1313,VALID,0,VALID,23.6922,VALID,111,VALID,0.524219,
2009-01-07, 02:34:04,VALID,1009.14,VALID,0,VALID,95.1008,VALID,0.105969,VALID,23.7135,VALID,115,VALID,0.548828,
2009-01-07, 02:35:04,VALID,1009.09,VALID,0,VALID,95.1084,VALID,0,VALID,23.7135,VALID,116,VALID,0.405469,
2009-01-07, 02:36:04,VALID,1009.1,VALID,0,VALID,95.1236,VALID,0,VALID,23.7135,VALID,127,VALID,0.792578,
2009-01-07, 02:37:04,VALID,1009.1,VALID,0,VALID,95.1236,VALID,0.105969,VALID,23.7117,VALID,124,VALID,0.802734,
2009-01-07, 02:38:04,VALID,1009.09,VALID,0,VALID,95.1084,VALID,0,VALID,23.733,VALID,125,VALID,0.649609,
2009-01-07, 02:39:04,VALID,1009.09,VALID,0,VALID,95.1008,VALID,0.105969,VALID,23.6922,VALID,125,VALID,0.371484,
2009-01-07, 02:40:04,VALID,1009.07,VALID,0,VALID,95.0855,VALID,0,VALID,23.694,VALID,125,VALID,0.364062,
2009-01-07, 02:41:04,VALID,1009.07,VALID,0,VALID,95.0703,VALID,0,VALID,23.6745,VALID,125,VALID,0.201562,
2009-01-07, 02:42:04,VALID,1009.08,VALID,0,VALID,95.0626,VALID,0,VALID,23.6958,VALID,125,VALID,0.158594,
2009-01-07, 02:43:04,VALID,1009.05,VALID,0,VALID,95.0703,VALID,0,VALID,23.6745,VALID,125,VALID,0.20625,
2009-01-07, 02:44:04,VALID,1009.07,VALID,0,VALID,95.055,VALID,0,VALID,23.6745,VALID,125,VALID,0,
2009-01-07, 02:45:04,VALID,1009.04,VALID,0,VALID,95.0703,VALID,0,VALID,23.6745,VALID,125,VALID,0,
2009-01-07, 02:46:04,VALID,1009.05,VALID,0,VALID,95.0474,VALID,0,VALID,23.655,VALID,125,VALID,0,
2009-01-07, 02:47:04,VALID,1009.04,VALID,0,VALID,95.0169,VALID,0,VALID,23.6763,VALID,125,VALID,0,
2009-01-07, 02:48:04,VALID,1009.05,VALID,0,VALID,95.0321,VALID,0,VALID,23.6356,VALID,125,VALID,0,
2009-01-07, 02:49:04,VALID,1009.02,VALID,0,VALID,95.0474,VALID,0,VALID,23.6356,VALID,125,VALID,0,
2009-01-07, 02:50:04,VALID,1009.03,VALID,0,VALID,95.1542,VALID,0,VALID,23.6161,VALID,125,VALID,0.185547,
2009-01-07, 02:51:04,VALID,1009.05,VALID,0,VALID,95.1465,VALID,0,VALID,23.6161,VALID,125,VALID,0.0667969,
2009-01-07, 02:52:04,VALID,1009.04,VALID,0,VALID,95.1389,VALID,0,VALID,23.6161,VALID,125,VALID,0,
2009-01-07, 02:53:04,VALID,1009.01,VALID,0,VALID,95.1542,VALID,0,VALID,23.6161,VALID,125,VALID,0.275781,
2009-01-07, 02:54:04,VALID,1009.01,VALID,0,VALID,95.1389,VALID,0,VALID,23.6373,VALID,125,VALID,0.000390625,
2009-01-07, 02:55:04,VALID,1008.97,VALID,0,VALID,95.1694,VALID,0.105969,VALID,23.6143,VALID,149,VALID,0.555469,
2009-01-07, 02:56:04,VALID,1008.94,VALID,0,VALID,95.1542,VALID,0.105969,VALID,23.6143,VALID,125,VALID,0.661328,
2009-01-07, 02:57:04,VALID,1008.94,VALID,0,VALID,95.1618,VALID,0.105969,VALID,23.6143,VALID,127,VALID,0.671484,
2009-01-07, 02:58:04,VALID,1008.88,VALID,0,VALID,95.1465,VALID,0.105969,VALID,23.6161,VALID,156,VALID,0.857422,
2009-01-07, 02:59:04,VALID,1008.9,VALID,0,VALID,95.1618,VALID,0.105969,VALID,23.5948,VALID,156,VALID,0.854297,
2009-01-07, 03:00:04,VALID,1008.88,VALID,0,VALID,95.1389,VALID,0,VALID,23.5966,VALID,160,VALID,0.908984,
2009-01-07, 03:01:04,VALID,1008.88,VALID,0,VALID,95.1389,VALID,0.105969,VALID,23.5753,VALID,164,VALID,0.559766,
2009-01-07, 03:02:04,VALID,1008.87,VALID,0,VALID,95.1389,VALID,0.105969,VALID,23.5753,VALID,174,VALID,0.504297,
2009-01-07, 03:03:04,VALID,1008.9,VALID,0,VALID,95.1465,VALID,0.105969,VALID,23.5753,VALID,176,VALID,0.823828,
2009-01-07, 03:04:04,VALID,1008.89,VALID,0,VALID,95.1618,VALID,0,VALID,23.5753,VALID,170,VALID,0.510547,
2009-01-07, 03:05:04,VALID,1008.91,VALID,0,VALID,95.1618,VALID,0.105969,VALID,23.5558,VALID,172,VALID,0.783984,
2009-01-07, 03:06:04,VALID,1008.89,VALID,0,VALID,95.1618,VALID,0,VALID,23.5558,VALID,162,VALID,0.693359,
2009-01-07, 03:07:04,VALID,1008.87,VALID,0,VALID,95.1542,VALID,0.105969,VALID,23.5363,VALID,175,VALID,0.666406,
2009-01-07, 03:08:04,VALID,1008.9,VALID,0,VALID,95.1389,VALID,0.105969,VALID,23.5576,VALID,148,VALID,0.697656,
2009-01-07, 03:09:04,VALID,1008.87,VALID,0,VALID,95.1542,VALID,0.105969,VALID,23.5363,VALID,145,VALID,0.503906,
2009-01-07, 03:10:04,VALID,1008.87,VALID,0,VALID,95.1542,VALID,0.105969,VALID,23.5558,VALID,159,VALID,0.458203,
2009-01-07, 03:11:04,VALID,1008.87,VALID,0,VALID,95.1618,VALID,0.105969,VALID,23.5363,VALID,163,VALID,0.717188,
2009-01-07, 03:12:04,VALID,1008.89,VALID,0,VALID,95.1618,VALID,0.105969,VALID,23.5363,VALID,152,VALID,0.879297,
2009-01-07, 03:13:04,VALID,1008.89,VALID,0,VALID,95.1542,VALID,0.105969,VALID,23.5558,VALID,152,VALID,0.724609,
2009-01-07, 03:14:04,VALID,1008.84,VALID,0,VALID,95.1542,VALID,0.105969,VALID,23.5771,VALID,127,VALID,0.73125,
2009-01-07, 03:15:04,VALID,1008.83,VALID,0,VALID,95.1389,VALID,0.105969,VALID,23.5558,VALID,129,VALID,0.716016,
2009-01-07, 03:16:04,VALID,1008.81,VALID,0,VALID,95.1465,VALID,0.105969,VALID,23.5363,VALID,160,VALID,0.475,
2009-01-07, 03:17:04,VALID,1008.82,VALID,0,VALID,95.1389,VALID,0.105969,VALID,23.5363,VALID,141,VALID,0.560938,
2009-01-07, 03:18:04,VALID,1008.8,VALID,0,VALID,95.1313,VALID,0.105969,VALID,23.5576,VALID,140,VALID,0.696875,
2009-01-07, 03:19:04,VALID,1008.79,VALID,0,VALID,95.1084,VALID,0.105969,VALID,23.5363,VALID,142,VALID,0.491406,
2009-01-07, 03:20:04,VALID,1008.77,VALID,0,VALID,95.116,VALID,0.105969,VALID,23.5576,VALID,144,VALID,0.385547,
2009-01-07, 03:21:04,VALID,1008.75,VALID,0,VALID,95.116,VALID,0.105969,VALID,23.5363,VALID,162,VALID,0.333984,
2009-01-07, 03:22:04,VALID,1008.77,VALID,0,VALID,95.0855,VALID,0.105969,VALID,23.5169,VALID,167,VALID,0.812891,
2009-01-07, 03:23:04,VALID,1008.77,VALID,0,VALID,95.0855,VALID,0.105969,VALID,23.5363,VALID,144,VALID,0.448438,
2009-01-07, 03:24:04,VALID,1008.77,VALID,0,VALID,95.0626,VALID,0.105969,VALID,23.5169,VALID,124,VALID,0.385156,
2009-01-07, 03:25:04,VALID,1008.76,VALID,0,VALID,95.055,VALID,0,VALID,23.5169,VALID,127,VALID,0.412109,
2009-01-07, 03:26:04,VALID,1008.77,VALID,0,VALID,95.055,VALID,0.105969,VALID,23.5169,VALID,147,VALID,0.51875,
2009-01-07, 03:27:04,VALID,1008.77,VALID,0,VALID,95.0398,VALID,0.105969,VALID,23.5576,VALID,159,VALID,0.385547,
2009-01-07, 03:28:04,VALID,1008.75,VALID,0,VALID,95.0321,VALID,0.105969,VALID,23.5169,VALID,160,VALID,0.823438,
2009-01-07, 03:29:04,VALID,1008.74,VALID,0,VALID,95.0245,VALID,0.105969,VALID,23.5169,VALID,145,VALID,1.05273,
2009-01-07, 03:30:04,VALID,1008.78,VALID,0,VALID,95.0321,VALID,0.105969,VALID,23.5169,VALID,136,VALID,0.54375,
2009-01-07, 03:31:04,VALID,1008.77,VALID,0,VALID,95.0093,VALID,0.105969,VALID,23.5186,VALID,136,VALID,0.284375,
2009-01-07, 03:32:04,VALID,1008.79,VALID,0,VALID,94.994,VALID,0.105969,VALID,23.4974,VALID,151,VALID,0.129688,
2009-01-07, 03:33:04,VALID,1008.8,VALID,0,VALID,94.994,VALID,0.105969,VALID,23.5169,VALID,151,VALID,0.306641,
2009-01-07, 03:34:04,VALID,1008.81,VALID,0,VALID,94.994,VALID,0.105969,VALID,23.4779,VALID,150,VALID,0.54375,
2009-01-07, 03:35:04,VALID,1008.81,VALID,0,VALID,94.9864,VALID,0.105969,VALID,23.4974,VALID,150,VALID,0.464063,
2009-01-07, 03:36:04,VALID,1008.81,VALID,0,VALID,94.9711,VALID,0.105969,VALID,23.4779,VALID,148,VALID,0.472266,
2009-01-07, 03:37:04,VALID,1008.81,VALID,0,VALID,94.9559,VALID,0.105969,VALID,23.4761,VALID,157,VALID,0.724219,
2009-01-07, 03:38:04,VALID,1008.81,VALID,0,VALID,94.9559,VALID,0.105969,VALID,23.4974,VALID,160,VALID,0.471094,
2009-01-07, 03:39:04,VALID,1008.82,VALID,0,VALID,94.9635,VALID,0,VALID,23.4797,VALID,160,VALID,0.583984,
2009-01-07, 03:40:04,VALID,1008.81,VALID,0,VALID,94.9711,VALID,0,VALID,23.4584,VALID,161,VALID,0.703516,